Flag for Zimbabwe Weather past 2 weeks in Harare, Zimbabwe

Now
59 °F

Clear.


Feels Like: 59 °F
Forecast: 39 / 69 °F
Wind: 5 mph from East

Location: Harare Kutsaga Airport

Current Time: Aug 2, 2015 at 6:39:28 PM

Latest Report: Aug 2, 2015 at 6:00 PM


Visibility: 10 mi

Pressure: 30.36 "Hg (25.44 "Hg at 1490m altitude)

Humidity: 36%

Dew point: 32 °F

Location of HarareLocation

Historic Weather in Harare — Graph

°F

Harare temperature yesterday

Maximum temperature yesterday: 70 °F (at 2:00 PM)
Minimum temperature yesterday: 48 °F (at 11:00 PM)
Average temperature yesterday: 59 °F

Past Weeks' High & Low Weather Summary

 TemperatureHumidityPressure
High81 °F (Jul 25, 3:00 PM)100% (Jul 23, 5:00 AM)30.51 "Hg (Jul 23, 5:00 AM)
Low43 °F (Aug 2, 5:00 AM)17% (Aug 1, 3:00 AM)30.15 "Hg (Jul 25, 2:00 PM)
Average61 °F55%30.28 "Hg
* Reported Jul 18 5:00 PM — Aug 2 5:00 PM, Harare, Weather by CustomWeather, © 2015

Note: Actual official high and low records may vary slightly from our data, if they occured in-between our weather recording intervals... More about our weather records

Advertising

Harare weather history for previous 24 hours

 ConditionsComfort  
Time TempWeatherWind HumidityBarometerVisibility
5:00 PM
Sun, Aug 2
68 °FPassing clouds.7 mph26%30.36 "HgN/A
3:00 PM70 °FSunny.7 mph21%30.36 "Hg10 mi
2:00 PM68 °FPassing clouds.10 mph28%30.39 "HgN/A
1:00 PM66 °FSunny.6 mph28%30.42 "Hg10 mi
12:00 PM66 °FPassing clouds.7 mph30%30.45 "HgN/A
11:00 AM63 °FSunny.6 mph39%30.48 "Hg10 mi
10:00 AM59 °FPassing clouds.8 mph45%30.51 "HgN/A
9:00 AM55 °FPassing clouds.7 mph55%30.48 "HgN/A
8:00 AM48 °FPassing clouds.7 mph71%30.48 "HgN/A
7:00 AM43 °FSunny.6 mph81%30.45 "Hg10 mi
6:00 AM43 °FClear.6 mph81%30.42 "Hg10 mi
5:00 AM43 °FClear.5 mph76%30.42 "Hg10 mi
4:00 AM45 °FPassing clouds.7 mph71%30.39 "HgN/A
3:00 AM45 °FClear.7 mph71%30.39 "Hg10 mi
2:00 AM45 °FClear.8 mph76%30.39 "Hg10 mi
1:00 AM46 °FClear.7 mph71%30.42 "Hg10 mi
12:00 AM46 °FClear.6 mph71%30.45 "Hg10 mi
11:00 PM
Sat, Aug 1
48 °FClear.6 mph71%30.45 "Hg10 mi
10:00 PM50 °FClear.6 mph67%30.45 "Hg10 mi
9:00 PM52 °FClear.7 mph58%30.42 "Hg10 mi
7:00 PM57 °FClear.9 mph48%30.39 "Hg10 mi
6:00 PM61 °FClear.9 mph42%30.36 "Hg10 mi
Weather by CustomWeather, © 2015

See weather overviewHow to use our weather pages